Des Moines, IA

4:04 PM CDT on July 27, 2017 (GMT -0500)
Des Moines International

Weather History for KDSM - March, 2012

Change the Weather History Date:

Saturday, March 3, 2012

  Actual Average Record
Temperature  
Mean Temperature 31 °F 34 °F  
Max Temperature 38 °F 43 °F 81 °F (1983)
Min Temperature 24 °F 25 °F -7 °F (2014)
Degree Days  
Heating Degree Days 34 31  
Month to date heating degree days 88 95  
Since 1 July heating degree days 4148 4926  
Cooling Degree Days 0 0  
Month to date cooling degree days 0 0  
Year to date cooling degree days 0 0  
Moisture  
Dew Point 18 °F    
Average Humidity 59    
Maximum Humidity 74    
Minimum Humidity 44    
Precipitation  
Precipitation T in 0.07 in 1.16 in (1923)
Month to date precipitation 0.02 0.19  
Year to date precipitation 2.23 2.47  
Snow  
Snow T in 0.20 in 5.30 in (1896)
Month to date snowfall 0.1 0.6  
Since 1 July snowfall 20.7 28.9  
Snow Depth 0.00 in    
Sea Level Pressure  
Sea Level Pressure 29.88 in    
Wind  
Wind Speed 18 mph (WNW)    
Max Wind Speed 31 mph    
Max Gust Speed 38 mph    
Visibility 10 miles    
Events Snow    
T = Trace of Precipitation, MM = Missing Value Source: NWS Daily Summary

Daily Weather History Graph

Daily Weather History Graph

Search for Another Location

Airport or City:

Trip Planner

Search our weather history database for the weather conditions in past years. The results will help you decide how hot, cold, wet, or windy it might be!

Date:

Astronomy

Mar. 03, 2012 Rise Set
Actual Time 6:45 AM CST 6:08 PM CST
Civil Twilight 6:17 AM CST 6:35 PM CST
Nautical Twilight 5:45 AM CST 7:08 PM CST
Astronomical Twilight 5:13 AM CST 7:40 PM CST
Moon 1:15 PM CST (3/3) 3:26 AM CST (3/3)
Length of Visible Light 12h 18m
Length of Day
11h 22m
Waxing Gibbous, 75% of the Moon is Illuminated
Mar 3
Waxing Gibbous
Mar 8
Full
Mar 14
Last Quarter
Mar 22
New
Mar 30
First Quarter

Hourly Weather History & Observations

Time (CST) Temp. Windchill Dew Point Humidity Pressure Visibility Wind Dir Wind Speed Gust Speed Precip Events Conditions
12:05 AM 33.8 °F 22.2 °F 21.2 °F 60% 29.80 in 10.0 mi WNW 20.7 mph 32.2 mph N/A   Overcast
12:54 AM 32.0 °F 18.9 °F 19.9 °F 61% 29.82 in 9.0 mi WNW 24.2 mph 34.5 mph 0.00 in   Overcast
1:54 AM 30.9 °F 17.2 °F 19.9 °F 64% 29.83 in 10.0 mi WNW 25.3 mph 31.1 mph 0.00 in Snow Light Snow
2:36 AM 30.2 °F 16.5 °F 19.4 °F 64% 29.80 in 9.0 mi WNW 24.2 mph 31.1 mph 0.00 in Snow Light Snow
2:54 AM 30.9 °F 19.1 °F 19.9 °F 64% 29.82 in 9.0 mi WNW 18.4 mph 26.5 mph 0.00 in Snow Light Snow
3:13 AM 30.2 °F 17.8 °F 19.4 °F 64% 29.79 in 9.0 mi WNW 19.6 mph 31.1 mph 0.00 in Snow Light Snow
3:38 AM 30.2 °F 17.1 °F 19.4 °F 64% 29.79 in 9.0 mi WNW 21.9 mph 31.1 mph 0.00 in Snow Light Snow
3:54 AM 30.9 °F 18.4 °F 19.0 °F 61% 29.81 in 9.0 mi WNW 20.7 mph 35.7 mph 0.00 in Snow Light Snow
4:20 AM 30.2 °F 17.8 °F 19.4 °F 64% 29.79 in 9.0 mi WNW 19.6 mph 32.2 mph 0.00 in Snow Light Snow
4:54 AM 30.9 °F 19.8 °F 19.0 °F 61% 29.83 in 9.0 mi WNW 16.1 mph 32.2 mph 0.00 in Snow Light Snow
5:54 AM 30.0 °F 16.6 °F 19.0 °F 64% 29.84 in 9.0 mi WNW 23.0 mph 31.1 mph 0.00 in Snow Light Snow
6:54 AM 28.9 °F 15.1 °F 17.1 °F 61% 29.87 in 10.0 mi WNW 23.0 mph 34.5 mph 0.00 in   Overcast
7:54 AM 30.0 °F 17.2 °F 18.0 °F 61% 29.87 in 10.0 mi NW 20.7 mph 28.8 mph 0.00 in Snow Light Snow
8:28 AM 30.2 °F 16.8 °F 19.4 °F 64% 29.86 in 9.0 mi WNW 23.0 mph 31.1 mph 0.00 in Snow Light Snow
8:54 AM 30.0 °F 16.0 °F 18.0 °F 61% 29.90 in 10.0 mi WNW 25.3 mph 32.2 mph 0.00 in   Overcast
9:44 AM 30.2 °F 15.9 °F 17.6 °F 60% 29.88 in 10.0 mi WNW 26.5 mph 34.5 mph N/A   Overcast
9:54 AM 30.9 °F 17.2 °F 17.1 °F 57% 29.91 in 10.0 mi WNW 25.3 mph 28.8 mph N/A   Overcast
10:12 AM 30.2 °F 17.4 °F 17.6 °F 60% 29.89 in 10.0 mi WNW 20.7 mph 31.1 mph N/A   Overcast
10:54 AM 32.0 °F 18.4 °F 18.0 °F 56% 29.92 in 10.0 mi WNW 26.5 mph 32.2 mph N/A   Overcast
11:54 AM 36.0 °F 23.9 °F 19.0 °F 50% 29.92 in 10.0 mi WNW 25.3 mph 31.1 mph N/A   Mostly Cloudy
12:54 PM 36.0 °F 25.0 °F 19.0 °F 50% 29.91 in 10.0 mi WNW 20.7 mph 31.1 mph N/A   Mostly Cloudy
1:54 PM 37.9 °F 26.8 °F 18.0 °F 45% 29.91 in 10.0 mi NW 24.2 mph 32.2 mph N/A   Scattered Clouds
2:54 PM 37.9 °F 28.2 °F 18.0 °F 45% 29.91 in 10.0 mi NW 18.4 mph 27.6 mph N/A   Scattered Clouds
3:54 PM 35.1 °F 23.0 °F 17.1 °F 48% 29.92 in 10.0 mi WNW 24.2 mph 31.1 mph N/A   Scattered Clouds
4:54 PM 35.1 °F 23.8 °F 17.1 °F 48% 29.94 in 10.0 mi NW 20.7 mph 29.9 mph N/A   Partly Cloudy
5:54 PM 32.0 °F 21.6 °F 17.1 °F 54% 29.95 in 10.0 mi NW 15.0 mph - N/A   Partly Cloudy
6:54 PM 30.9 °F 21.7 °F 17.1 °F 57% 29.96 in 10.0 mi NW 11.5 mph - N/A   Partly Cloudy
7:54 PM 30.0 °F 20.0 °F 16.0 °F 56% 29.96 in 10.0 mi NW 12.7 mph - N/A   Partly Cloudy
8:54 PM 27.0 °F 20.5 °F 17.1 °F 66% 29.95 in 10.0 mi NW 5.8 mph - N/A   Clear
9:54 PM 25.0 °F 18.1 °F 17.1 °F 72% 29.95 in 10.0 mi NW 5.8 mph - N/A   Clear
10:54 PM 25.0 °F 20.7 °F 17.1 °F 72% 29.95 in 10.0 mi West 3.5 mph - N/A   Clear
11:54 PM 24.1 °F 19.7 °F 17.1 °F 75% 29.94 in 10.0 mi West 3.5 mph - N/A   Clear